{"data":{"norad_id":54649,"intl_designator":"2022-166H","name":"ONEWEB-0582","alt_names":[],"object_type":"PAYLOAD","status":"ACTIVE","operator":null,"country":"UK","launch_date":"2022-12-08","launch_site_code":"AFETR","launch_vehicle":null,"mission":null,"orbit_class":"UNKNOWN","rcs_meters":null,"size_class":null,"mass_kg":null,"dimensions":null,"purposes":["comms"],"wikipedia_slug":null,"has_3d_model":false,"image_url":null,"decayed_at":null,"tle_current":{"epoch":"2026-09-20T04:56:29.872320Z","epoch_age_seconds":47434,"freshness":"FRESH","line1":"1 54649U 22166H   26263.20590130  .00000057  00000+0  10698-3 0  9992","line2":"2 54649  87.9285 225.0621 0002497  85.4942 274.6477 13.21827713184073","mean_motion":13.21827713,"eccentricity":0.0002497,"inclination_deg":87.9285,"raan_deg":225.0621,"arg_perigee_deg":85.4942,"mean_anomaly_deg":274.6477,"bstar":0.00010698,"rev_number":18407,"period_min":108.94006728999,"perigee_km":1175.8601362203,"apogee_km":1179.6335446102,"semimajor_km":7555.8838404153,"source":"CELESTRAK","updated_at":"2026-09-20T09:00:44.742059Z"}}}